Wind_Speed
3 3 2 2 3 3 1 1 2 3 4 4 5 6 5 5 5 5 5 4 4 4 3 3 3 3 2 1 1 1 1 1 2 3 3 3 3 2 2 2 3 2 3 2 1 2 3 4 4
3 3 2 2 2 1 1 1 1 3 4 4 5 5 5 5 5 5 5 4 4 4 3 3 3 3 2 1 1 0 0 0 1 1 1 2 2 2 2 2 2 3 2 2 1 2 3 3 4
3 2 2 1 1 2 2 2 2 3 4 5 5 5 5 5 5 6 5 4 4 4 3 3 3 3 2 2 1 1 1 1 1 1 1 1 2 2 1 1 2 3 3 2 2 2 2 3 4
4 3 2 1 3 3 3 3 3 3 4 4 5 5 5 5 5 6 5 5 5 4 4 3 3 3 2 2 2 1 1 1 1 1 2 2 2 2 2 2 2 3 3 3 2 3 3 3 3
4 3 2 3 4 4 4 4 3 3 4 5 6 6 5 5 6 6 6 5 5 4 4 3 3 3 3 2 2 2 1 2 1 1 2 3 3 2 3 3 3 3 3 3 3 3 4 4 3
5 4 4 5 5 5 4 4 4 4 5 5 6 6 6 6 7 6 6 6 5 5 5 4 3 3 3 2 2 2 2 2 2 2 2 3 3 3 3 3 3 3 3 3 4 4 5 5 5
6 5 6 6 6 6 6 5 5 5 5 5 6 7 8 7 7 7 6 6 5 5 5 5 4 3 3 2 2 2 2 2 2 3 3 3 3 3 3 3 3 3 4 4 5 5 6 6 5
7 7 7 7 6 7 6 7 6 5 5 6 6 8 9 8 7 7 7 6 6 6 5 4 4 3 3 3 3 3 3 3 3 3 4 4 4 4 4 4 3 4 4 5 5 6 6 6 6
8 8 9 8 8 8 8 8 7 7 6 6 8 8 9 8 8 7 7 7 6 6 5 4 4 4 4 4 4 3 4 3 3 4 4 5 5 5 5 5 5 5 6 6 5 6 7 6 7
11 10 11 10 9 9 9 9 9 8 8 7 8 9 9 9 8 8 7 7 7 6 6 5 5 5 5 5 4 4 4 4 4 5 5 5 5 5 5 6 6 5 5 6 6 6 6 7 8
13 13 13 12 11 10 10 9 9 9 9 8 9 9 9 9 9 9 8 8 8 7 6 6 5 6 5 5 5 6 5 5 5 5 5 5 5 5 5 6 6 5 5 5 6 7 7 8 8
15 14 14 13 13 12 11 10 9 10 10 9 9 9 9 9 9 9 9 9 9 8 7 7 6 6 6 6 6 6 6 6 7 6 7 6 6 6 6 6 5 6 6 6 6 7 8 8 8
16 16 15 15 14 13 12 11 11 11 10 10 10 10 9 9 9 9 8 8 8 8 7 7 6 7 7 7 7 7 7 7 7 7 7 6 6 7 7 8 7 7 7 7 6 7 7 7 8
17 17 16 16 15 15 15 14 13 13 12 12 11 11 10 10 9 9 8 8 8 8 8 8 7 7 7 7 7 8 8 7 7 7 8 8 8 8 9 9 9 9 8 7 7 8 8 8 8
17 17 17 17 17 17 16 16 15 15 15 13 12 12 11 12 11 9 9 9 9 9 8 8 8 8 7 7 8 8 8 9 9 9 8 8 9 10 10 9 9 9 9 9 9 8 9 9 9
17 17 17 18 17 17 17 17 17 17 16 15 13 12 12 13 13 12 11 11 10 10 9 9 9 9 8 8 9 9 10 10 10 10 10 10 10 11 11 10 10 10 10 10 10 10 10 11 11
18 18 18 19 18 18 18 18 18 18 17 16 15 13 13 14 14 14 13 14 13 12 12 11 10 10 10 10 10 10 11 11 12 11 11 11 12 12 12 12 11 11 11 11 12 12 12 12 12
19 19 19 20 19 19 19 19 19 19 18 17 16 16 15 15 15 15 14 15 15 14 13 13 12 11 12 12 12 11 11 11 12 12 12 12 13 13 13 13 13 12 12 13 13 13 13 13 13
19 19 19 20 20 19 20 19 19 20 19 19 18 16 15 15 16 16 16 16 16 15 15 15 14 13 13 13 13 12 11 11 11 11 12 13 13 14 14 14 14 14 14 14 14 14 14 14 15
20 19 19 21 21 21 21 21 21 21 20 19 19 18 17 17 17 17 17 17 17 16 16 16 15 15 15 14 14 13 13 13 13 12 13 13 14 14 14 14 14 15 15 15 15 15 16 16 16
20 20 20 21 21 21 21 20 20 20 20 19 19 19 19 18 17 18 19 19 18 17 17 17 16 16 15 15 14 14 14 14 14 14 14 13 13 13 13 13 14 15 16 16 16 17 17 17 17
20 20 20 21 20 20 21 20 19 19 19 19 19 20 20 19 18 18 19 19 18 17 17 17 16 16 16 16 15 14 14 15 15 15 15 14 14 14 14 15 15 16 16 17 17 17 17 18 18
20 20 19 20 20 20 20 20 19 20 19 18 19 19 19 19 19 18 17 18 18 17 17 16 17 17 17 18 17 16 16 16 16 16 16 15 16 16 16 16 16 17 17 18 18 18 18 18 19
21 20 20 19 20 21 20 20 19 19 18 18 18 18 19 19 19 18 18 18 19 19 18 17 17 18 18 18 18 18 17 17 17 17 17 17 17 17 17 18 17 18 18 19 19 18 19 19 20
21 20 19 19 20 21 21 21 20 18 18 17 17 18 18 18 19 19 19 20 20 20 19 19 19 19 19 19 19 19 19 18 18 18 18 19 19 18 18 19 19 19 19 19 20 20 20 20 21
21 20 20 20 20 20 21 22 20 18 18 18 18 19 19 19 19 20 21 21 21 21 21 21 21 20 21 21 21 21 20 20 19 19 19 19 19 19 19 19 19 19 19 19 20 20 21 21 21
22 22 21 21 21 20 21 21 19 19 18 18 18 19 19 20 20 20 21 22 22 22 23 23 22 22 21 22 22 22 21 21 21 20 20 20 20 20 19 19 19 19 20 20 20 20 20 20 21
23 22 22 22 21 21 21 21 20 19 18 18 19 19 20 20 20 21 21 21 22 23 23 23 23 23 23 23 23 22 22 21 21 21 21 21 21 21 20 20 20 20 21 21 21 21 21 21 22
24 24 24 24 23 22 20 21 21 21 20 20 20 21 21 21 21 21 22 22 22 23 23 24 23 24 24 24 24 23 22 22 22 22 21 21 21 21 21 21 21 21 21 21 22 22 23 22 22
25 25 24 24 25 24 23 24 24 22 21 20 21 21 21 22 22 22 22 23 23 24 24 24 25 25 25 24 24 23 23 22 22 22 21 21 21 21 21 21 21 21 21 22 22 23 23 23 23
Wind_Direction
166 156 143 119 89 80 127 110 49 35 32 37 36 37 36 35 35 26 19 15 16 13 9 9 1 3 3 357 13 63 94 101 108 108 113 122 131 129 131 143 157 159 172 176 191 209 200 196 199
188 178 165 125 96 175 233 256 347 4 14 17 23 28 30 32 28 21 14 10 5 5 1 359 353 349 347 342 346 25 136 129 133 137 129 140 153 158 159 167 172 174 187 204 198 210 212 209 206
213 212 205 124 191 212 250 277 308 338 0 6 11 18 19 20 18 13 9 0 358 360 351 342 338 334 326 313 303 283 256 216 200 167 175 194 189 187 186 193 196 195 207 227 216 200 212 215 206
231 238 249 260 247 243 256 278 298 326 354 1 1 4 5 7 4 360 359 356 350 349 343 334 321 315 306 305 293 280 261 235 225 196 197 204 211 215 216 230 214 219 228 240 226 217 216 222 222
237 245 263 263 260 267 269 278 295 323 339 349 351 356 354 356 353 349 348 348 348 341 334 329 312 304 295 294 283 278 265 249 243 230 224 206 206 224 232 242 235 233 236 233 221 218 219 223 225
239 241 237 250 266 272 276 285 286 301 320 332 339 344 346 341 340 336 332 332 333 332 326 314 298 292 291 286 269 265 270 271 263 260 249 222 212 234 246 259 251 243 242 236 221 224 218 217 219
238 234 238 250 267 272 272 282 287 296 308 324 329 329 331 336 330 327 321 319 318 321 322 312 296 291 281 272 269 264 257 262 261 273 258 249 245 244 247 249 247 246 245 239 236 229 219 222 221
242 239 249 257 262 267 272 273 281 285 296 308 314 316 318 325 324 321 318 312 306 308 311 314 301 290 285 280 270 262 255 251 246 252 254 253 250 240 243 246 254 253 250 249 247 239 229 225 221
240 242 250 255 259 267 271 273 276 280 284 296 305 305 306 310 311 310 309 305 301 300 300 303 292 286 282 279 273 262 257 249 250 251 251 248 248 248 250 249 256 257 251 242 243 238 232 231 231
240 242 249 255 258 266 269 273 275 282 282 285 295 300 299 300 300 301 299 296 295 294 292 294 290 281 282 276 271 266 262 257 258 253 248 249 249 252 254 255 256 255 251 242 241 244 246 241 234
245 245 251 256 260 266 268 269 272 278 283 284 289 296 297 295 296 297 294 292 290 290 286 287 282 274 275 272 270 265 261 261 258 248 245 252 253 252 256 263 261 253 250 247 245 250 250 249 244
248 250 253 258 261 266 268 267 271 274 276 282 287 293 291 288 290 294 290 290 286 285 283 283 277 274 272 267 265 267 264 264 258 252 253 256 254 255 263 266 268 258 253 251 248 245 248 248 248
249 250 252 257 260 265 267 268 271 273 272 275 282 286 282 278 283 286 287 285 281 276 276 279 276 270 267 263 262 264 268 274 272 262 261 259 257 259 264 265 264 263 261 258 252 246 244 245 245
249 250 252 256 259 263 265 266 270 271 270 273 280 279 278 276 281 280 280 278 275 272 270 274 272 269 266 263 266 269 269 277 278 273 269 265 264 266 266 262 264 265 266 254 254 255 252 253 248
249 250 251 255 260 262 265 266 269 268 269 271 275 274 273 272 273 272 265 265 264 266 270 271 272 269 266 267 270 273 274 275 276 277 273 268 266 269 267 262 262 263 264 263 263 255 257 257 254
249 249 251 255 259 262 263 264 267 268 268 267 269 271 270 270 268 263 257 257 259 262 267 269 269 268 268 273 275 275 275 275 274 276 272 273 270 269 267 262 260 260 260 261 261 258 261 256 253
251 250 250 255 257 261 261 261 264 267 266 265 265 267 269 268 266 262 257 257 256 258 264 265 263 265 268 273 277 278 277 278 276 277 277 274 273 270 266 261 261 259 258 258 256 258 261 258 254
252 251 251 254 258 260 260 261 265 265 264 265 265 266 266 266 265 262 259 256 254 254 260 262 261 264 268 271 277 282 283 279 277 281 278 275 274 271 269 263 262 260 258 257 256 257 258 255 252
252 252 252 254 258 258 259 260 262 263 265 265 265 265 265 263 263 261 259 255 252 252 257 260 262 266 271 274 276 281 284 285 283 282 279 276 275 272 271 265 259 258 257 256 256 256 256 252 250
250 252 254 256 259 259 259 260 262 264 265 264 263 264 264 263 259 259 260 256 253 252 252 256 261 266 269 274 279 280 282 284 283 284 283 279 275 274 271 264 256 256 258 257 258 259 255 254 252
250 251 253 256 259 259 260 262 263 263 263 262 261 262 262 262 258 256 258 259 254 251 253 255 259 264 269 273 277 278 280 282 282 283 282 280 278 275 271 265 259 259 258 257 258 259 257 254 253
250 251 252 254 258 258 260 261 261 263 262 262 262 261 261 260 257 256 255 255 253 252 252 254 259 262 268 272 275 279 281 283 282 282 280 279 278 277 272 266 263 262 262 261 262 260 261 256 254
249 251 252 255 257 257 260 262 263 265 264 263 262 261 261 259 257 257 253 250 252 253 255 258 261 261 266 271 275 280 282 283 281 280 279 277 277 276 273 269 265 265 265 264 263 263 261 260 257
249 252 255 258 259 259 261 263 265 266 266 263 260 258 258 257 257 254 251 249 250 253 255 259 263 264 267 271 274 278 279 281 279 279 278 278 276 273 271 269 267 268 267 265 264 264 262 261 259
250 253 256 257 258 261 263 264 266 267 263 260 259 258 257 256 256 255 253 251 250 252 255 258 262 266 268 270 272 275 277 279 279 279 278 277 276 273 272 270 269 270 268 267 264 264 265 263 261
252 252 251 253 257 262 265 265 267 267 263 261 260 259 258 259 259 256 253 251 252 254 257 259 261 265 267 268 270 273 275 277 277 277 278 276 275 273 271 271 270 269 269 267 265 267 266 265 263
250 250 251 254 258 262 264 267 268 267 263 260 261 260 259 260 260 257 253 252 253 255 258 261 261 264 267 268 270 273 274 276 276 275 275 276 275 274 273 273 272 270 269 268 266 266 265 264 263
248 251 251 252 257 261 265 267 267 267 264 260 260 261 261 261 260 256 254 253 254 256 259 260 260 263 266 268 269 272 273 274 274 274 275 276 276 274 273 272 272 271 270 268 267 266 265 264 263
249 251 252 253 256 259 265 267 266 266 264 260 258 257 259 259 258 255 253 253 254 256 258 259 259 261 264 267 269 271 271 274 275 275 275 276 277 276 275 273 273 272 270 269 269 267 267 264 263
250 251 253 254 257 261 264 268 268 267 262 259 258 256 257 257 257 255 254 254 255 257 258 260 260 260 263 265 267 269 269 272 274 275 275 276 276 277 277 275 274 272 271 270 268 266 265 264 263
Height
5904 5904 5905 5906 5907 5909 5908 5907 5907 5906 5905 5904 5903 5902 5901 5901 5901 5901 5898 5895 5895 5893 5892 5892 5891 5890 5890 5890 5889 5889 5888 5887 5887 5886 5886 5886 5886 5886 5886 5886 5886 5886 5886 5887 5887 5887 5887 5887 5887
5903 5904 5905 5906 5908 5910 5908 5907 5906 5905 5905 5904 5903 5902 5901 5899 5899 5898 5896 5895 5894 5893 5892 5891 5890 5890 5889 5889 5889 5888 5888 5887 5887 5886 5886 5886 5886 5886 5886 5886 5886 5886 5886 5886 5886 5886 5886 5887 5887
5903 5903 5905 5906 5907 5908 5907 5906 5905 5905 5904 5903 5902 5901 5901 5899 5898 5897 5896 5894 5893 5892 5891 5890 5890 5889 5889 5888 5888 5888 5887 5887 5886 5886 5886 5886 5886 5886 5886 5886 5886 5886 5886 5886 5886 5885 5886 5886 5887
5902 5903 5905 5906 5906 5906 5906 5905 5904 5904 5903 5902 5901 5901 5900 5899 5897 5896 5895 5894 5893 5891 5890 5890 5889 5889 5888 5888 5887 5887 5886 5886 5886 5885 5885 5885 5885 5885 5885 5885 5885 5885 5885 5885 5885 5885 5886 5886 5887
5901 5903 5905 5905 5904 5904 5904 5904 5903 5903 5902 5901 5901 5900 5899 5898 5896 5895 5894 5893 5892 5891 5890 5889 5888 5888 5887 5887 5886 5886 5886 5885 5885 5885 5884 5884 5885 5885 5885 5885 5885 5885 5884 5884 5885 5885 5885 5886 5886
5901 5902 5905 5905 5903 5903 5903 5903 5902 5902 5901 5901 5900 5899 5898 5897 5896 5894 5893 5892 5891 5890 5889 5888 5888 5887 5887 5886 5886 5885 5885 5884 5884 5884 5884 5883 5884 5884 5884 5884 5884 5883 5883 5883 5884 5884 5884 5885 5885
5900 5901 5903 5903 5902 5902 5902 5901 5901 5901 5900 5899 5899 5898 5897 5896 5894 5893 5892 5891 5890 5889 5889 5888 5887 5886 5886 5886 5885 5885 5884 5884 5884 5883 5883 5883 5883 5883 5883 5883 5883 5883 5882 5883 5883 5883 5883 5884 5884
5898 5900 5900 5901 5901 5900 5900 5899 5899 5899 5899 5898 5898 5897 5895 5894 5893 5892 5891 5890 5889 5888 5888 5887 5886 5885 5885 5885 5884 5884 5883 5883 5883 5883 5882 5882 5882 5882 5882 5882 5882 5882 5881 5881 5881 5882 5882 5882 5883
5896 5899 5899 5899 5899 5899 5898 5897 5897 5897 5897 5896 5896 5895 5894 5893 5892 5891 5890 5889 5888 5887 5886 5886 5885 5885 5884 5884 5883 5883 5882 5882 5882 5882 5881 5881 5881 5881 5881 5881 5881 5881 5880 5880 5880 5880 5880 5881 5881
5894 5896 5897 5896 5896 5896 5896 5895 5895 5895 5895 5895 5894 5893 5892 5891 5890 5889 5888 5887 5886 5886 5885 5885 5884 5884 5883 5883 5882 5882 5881 5881 5881 5881 5880 5880 5880 5880 5879 5879 5879 5879 5879 5879 5879 5879 5879 5879 5879
5891 5893 5893 5893 5893 5893 5893 5893 5893 5893 5893 5893 5892 5891 5890 5889 5888 5887 5887 5886 5885 5884 5883 5883 5883 5883 5882 5882 5881 5881 5880 5880 5880 5880 5879 5879 5879 5878 5878 5878 5878 5878 5877 5877 5878 5878 5878 5878 5878
5888 5889 5889 5890 5890 5890 5890 5890 5890 5890 5891 5890 5889 5888 5887 5886 5886 5885 5884 5884 5883 5882 5882 5882 5881 5881 5881 5880 5880 5879 5879 5879 5878 5878 5878 5877 5877 5877 5877 5877 5876 5876 5876 5876 5876 5877 5877 5877 5878
5885 5885 5886 5886 5887 5887 5887 5887 5888 5888 5888 5887 5886 5886 5885 5884 5884 5883 5882 5882 5881 5881 5880 5880 5880 5879 5879 5879 5878 5878 5878 5877 5877 5876 5876 5876 5876 5876 5875 5875 5875 5875 5875 5874 5874 5875 5875 5876 5876
5881 5882 5882 5883 5883 5883 5884 5884 5885 5885 5885 5884 5884 5883 5883 5882 5882 5881 5880 5880 5879 5879 5878 5878 5878 5878 5877 5877 5877 5876 5876 5875 5875 5874 5874 5874 5874 5874 5873 5873 5874 5874 5873 5872 5873 5874 5874 5874 5875
5877 5878 5879 5879 5879 5880 5881 5881 5882 5881 5881 5881 5881 5880 5880 5879 5879 5878 5878 5878 5877 5877 5877 5876 5876 5876 5876 5875 5875 5874 5874 5873 5873 5873 5872 5872 5871 5871 5871 5871 5871 5871 5871 5871 5871 5872 5872 5872 5873
5873 5875 5876 5876 5876 5876 5878 5878 5878 5877 5878 5878 5878 5877 5876 5876 5876 5875 5875 5875 5875 5875 5875 5875 5874 5874 5874 5873 5873 5872 5872 5871 5871 5870 5870 5869 5869 5869 5869 5869 5869 5869 5869 5869 5870 5870 5870 5870 5871
5869 5871 5872 5872 5872 5873 5873 5874 5874 5873 5874 5874 5874 5874 5873 5873 5872 5872 5872 5872 5872 5872 5873 5872 5872 5872 5872 5871 5871 5870 5869 5869 5868 5868 5867 5867 5866 5866 5866 5866 5867 5867 5867 5867 5867 5868 5868 5868 5868
5866 5867 5867 5868 5868 5868 5869 5869 5869 5869 5870 5870 5870 5870 5869 5869 5869 5869 5869 5869 5869 5869 5870 5870 5870 5870 5869 5869 5868 5868 5867 5866 5865 5865 5864 5864 5864 5863 5863 5863 5864 5864 5864 5864 5864 5864 5865 5865 5866
5860 5862 5863 5863 5863 5864 5864 5865 5865 5864 5865 5865 5865 5865 5865 5865 5865 5865 5865 5865 5865 5866 5867 5867 5867 5867 5867 5866 5866 5865 5864 5863 5863 5862 5861 5861 5860 5860 5860 5860 5860 5861 5861 5861 5861 5861 5861 5862 5863
5855 5857 5858 5858 5859 5859 5859 5860 5860 5860 5860 5860 5860 5860 5861 5861 5861 5861 5861 5861 5862 5862 5863 5864 5864 5864 5864 5863 5862 5862 5861 5861 5860 5859 5858 5857 5857 5857 5856 5856 5856 5857 5857 5857 5857 5858 5858 5858 5859
5850 5852 5853 5853 5854 5854 5855 5855 5855 5855 5855 5855 5855 5856 5856 5856 5857 5857 5857 5857 5858 5859 5860 5860 5860 5860 5860 5860 5859 5859 5858 5858 5857 5856 5855 5855 5854 5853 5853 5853 5852 5853 5853 5853 5853 5853 5854 5854 5855
5845 5847 5848 5848 5849 5850 5850 5851 5851 5850 5850 5850 5850 5851 5851 5852 5852 5852 5853 5853 5854 5855 5856 5856 5857 5857 5857 5856 5856 5855 5855 5854 5854 5853 5852 5851 5851 5850 5849 5849 5849 5849 5849 5849 5849 5849 5849 5850 5850
5841 5842 5843 5844 5844 5845 5845 5846 5848 5846 5846 5846 5845 5846 5846 5847 5847 5848 5848 5849 5850 5851 5852 5852 5853 5853 5853 5853 5852 5852 5851 5851 5850 5849 5848 5847 5847 5846 5846 5845 5845 5845 5845 5845 5845 5844 5845 5845 5846
5836 5837 5838 5839 5840 5840 5841 5841 5842 5842 5841 5841 5841 5841 5841 5842 5842 5843 5844 5844 5845 5847 5847 5848 5848 5849 5849 5848 5848 5848 5847 5846 5846 5845 5844 5843 5842 5842 5841 5841 5840 5840 5840 5840 5840 5840 5840 5840 5840
5830 5833 5835 5835 5835 5836 5836 5836 5837 5837 5836 5836 5836 5836 5836 5837 5837 5838 5839 5840 5841 5842 5843 5843 5844 5844 5844 5844 5844 5843 5843 5842 5841 5840 5839 5838 5837 5837 5836 5836 5835 5835 5835 5834 5834 5835 5835 5835 5835
5825 5828 5830 5831 5832 5832 5830 5830 5832 5831 5831 5831 5831 5831 5831 5832 5832 5833 5834 5835 5836 5837 5838 5838 5839 5839 5839 5839 5839 5839 5838 5837 5836 5835 5834 5833 5832 5832 5831 5830 5830 5829 5829 5829 5829 5829 5829 5829 5829
5820 5821 5824 5825 5825 5826 5825 5825 5826 5825 5825 5825 5825 5826 5826 5827 5827 5828 5828 5829 5831 5832 5832 5833 5833 5834 5834 5834 5833 5833 5832 5832 5831 5830 5829 5828 5827 5826 5826 5825 5825 5824 5823 5823 5823 5823 5823 5823 5823
5814 5816 5818 5819 5819 5820 5821 5820 5821 5820 5820 5820 5820 5820 5820 5821 5821 5822 5822 5823 5825 5825 5826 5827 5827 5828 5828 5828 5828 5827 5827 5826 5825 5824 5824 5823 5821 5821 5820 5820 5819 5818 5818 5818 5817 5817 5817 5817 5817
5808 5810 5811 5812 5814 5815 5815 5817 5814 5814 5814 5814 5814 5814 5814 5815 5815 5816 5817 5818 5819 5819 5820 5820 5821 5822 5822 5822 5822 5821 5821 5821 5820 5819 5818 5817 5816 5815 5814 5814 5813 5812 5812 5811 5811 5810 5810 5810 5810
5801 5803 5805 5806 5807 5807 5809 5811 5807 5808 5808 5808 5808 5808 5809 5809 5810 5810 5811 5812 5812 5813 5813 5814 5814 5815 5815 5815 5815 5815 5815 5815 5814 5813 5812 5811 5811 5810 5809 5808 5807 5806 5805 5805 5804 5804 5803 5803 5804